Weather History for Boulder City, NV

Change the Weather History Date:

Wednesday, February 27, 2013

  Actual Average (KLAS) Record (KLAS)
Temperature  
Mean Temperature 47 °F 56 °F  
Max Temperature 57 °F 66 °F 83 °F (1986)
Min Temperature 37 °F 46 °F 19 °F (1971)
Degree Days  
Heating Degree Days 18 9  
Month to date heating degree days 330  
Since 1 July heating degree days 1682  
Cooling Degree Days 0 0  
Month to date cooling degree days 0  
Year to date cooling degree days 0  
Moisture  
Dew Point 5 °F    
Average Humidity 20    
Maximum Humidity 33    
Minimum Humidity 9    
Precipitation  
Precipitation 0.00 in 0.02 in 0.65 in (2001)
Month to date precipitation 0.73  
Year to date precipitation 1.27  
Snow  
Snow 0.00 in 0.00 in T in (2004)
Month to date snowfall 0.1  
Since 1 July snowfall 0.3  
Snow Depth -    
Sea Level Pressure  
Sea Level Pressure 30.33 in    
Wind  
Wind Speed 9 mph (North)    
Max Wind Speed 17 mph    
Max Gust Speed 25 mph    
Visibility 10 miles    
Events Thunderstorm    
T = Trace of Precipitation, MM = Missing Value Source: NWS Daily Summary

Daily Weather History Graph

Daily Weather History Graph

Search for Another Location

Airport:

Trip Planner

Search our weather history database for the weather conditions in past years. The results will help you decide how hot, cold, wet, or windy it might be!

Date:

Astronomy

Feb. 27, 2013 Rise Set
Actual Time 6:11 AM PST 5:32 PM PST
Civil Twilight 5:46 AM PST 5:58 PM PST
Nautical Twilight 5:16 AM PST 6:28 PM PST
Astronomical Twilight 4:46 AM PST 6:58 PM PST
Moon 7:52 PM PST (2/27) 6:54 AM PST (2/27)
Length of Visible Light 12h 12m
Length of Day
11h 21m
Waning Gibbous, 96% of the Moon is Illuminated
Feb 27
Waning Gibbous
Mar 4
Last Quarter
Mar 11
New
Mar 19
First Quarter
Mar 27
Full

Hourly Weather History & Observations

Time (PST) Temp. Windchill Dew Point Humidity Pressure Visibility Wind Dir Wind Speed Gust Speed Precip Events Conditions
12:15 AM 44.6 °F 38.8 °F 12.2 °F 27% 30.26 in 10.0 mi North 11.5 mph - N/A   Clear
12:55 AM 41.0 °F 34.7 °F 8.6 °F 26% 30.28 in 10.0 mi NW 10.4 mph - N/A   Clear
1:15 AM 39.2 °F 33.6 °F 8.6 °F 28% 30.29 in 10.0 mi NNW 8.1 mph - N/A   Clear
1:35 AM 39.2 °F 33.6 °F 8.6 °F 28% 30.29 in 10.0 mi North 8.1 mph - N/A   Clear
1:55 AM 42.8 °F 36.2 °F 8.6 °F 25% 30.29 in 10.0 mi North 12.7 mph - N/A   Clear
2:15 AM 42.8 °F 37.0 °F 10.4 °F 27% 30.29 in 10.0 mi North 10.4 mph - N/A   Clear
2:35 AM 41.0 °F 35.2 °F 10.4 °F 29% 30.28 in 10.0 mi North 9.2 mph - N/A   Clear
2:55 AM 39.2 °F 33.0 °F 10.4 °F 31% 30.28 in 10.0 mi North 9.2 mph - N/A   Clear
3:15 AM 39.2 °F 33.6 °F 10.4 °F 31% 30.28 in 10.0 mi NNW 8.1 mph - N/A   Clear
3:35 AM 37.4 °F 32.1 °F 10.4 °F 33% 30.29 in 10.0 mi NNW 6.9 mph - N/A   Clear
3:55 AM 39.2 °F 34.2 °F 8.6 °F 28% 30.29 in 10.0 mi NNW 6.9 mph - N/A   Clear
4:15 AM 41.0 °F 33.9 °F 10.4 °F 29% 30.29 in 10.0 mi North 12.7 mph - N/A   Clear
4:35 AM 41.0 °F 35.8 °F 10.4 °F 29% 30.30 in 10.0 mi NNE 8.1 mph - N/A   Clear
4:55 AM 41.0 °F 38.0 °F 8.6 °F 26% 30.31 in 10.0 mi NNE 4.6 mph - N/A   Clear
5:35 AM 41.0 °F 35.8 °F 8.6 °F 26% 30.32 in 10.0 mi North 8.1 mph - N/A   Clear
5:55 AM 39.2 °F 30.2 °F 8.6 °F 28% 30.33 in 10.0 mi North 17.3 mph 20.7 mph N/A   Clear
6:15 AM 41.0 °F 32.5 °F 8.6 °F 26% 30.33 in 10.0 mi North 17.3 mph - N/A   Clear
6:35 AM 41.0 °F 32.8 °F 8.6 °F 26% 30.33 in 10.0 mi North 16.1 mph 25.3 mph N/A   Clear
7:15 AM 41.0 °F 32.5 °F 8.6 °F 26% 30.35 in 10.0 mi North 17.3 mph - N/A Thunderstorm Clear
7:35 AM 42.8 °F 35.4 °F 8.6 °F 25% 30.37 in 10.0 mi NNW 15.0 mph - N/A   Clear
7:55 AM 44.6 °F 37.8 °F 6.8 °F 21% 30.37 in 10.0 mi NNE 15.0 mph - N/A   Clear
8:15 AM 44.6 °F 38.8 °F 8.6 °F 23% 30.38 in 10.0 mi NNW 11.5 mph - N/A   Clear
8:35 AM 46.4 °F 40.1 °F 8.6 °F 22% 30.39 in 10.0 mi North 15.0 mph - N/A   Clear
8:55 AM 46.4 °F 40.1 °F 6.8 °F 20% 30.39 in 10.0 mi North 15.0 mph - N/A Thunderstorm Clear
9:15 AM 46.4 °F 41.5 °F 8.6 °F 22% 30.39 in 9.0 mi North 10.4 mph - N/A   Clear
9:35 AM 48.2 °F - 6.8 °F 19% 30.39 in 10.0 mi North 9.2 mph - N/A   Clear
9:55 AM 48.2 °F - 6.8 °F 19% 30.39 in 10.0 mi North 9.2 mph 16.1 mph N/A   Clear
10:15 AM 50.0 °F - 5.0 °F 16% 30.38 in 10.0 mi North 16.1 mph - N/A   Clear
10:35 AM 50.0 °F - 6.8 °F 17% 30.38 in 10.0 mi North 10.4 mph - N/A   Clear
10:55 AM 50.0 °F - 6.8 °F 17% 30.38 in 10.0 mi North 11.5 mph - N/A   Clear
11:15 AM 50.0 °F - 6.8 °F 17% 30.37 in 10.0 mi NNE 8.1 mph 16.1 mph N/A   Clear
11:35 AM 51.8 °F - 5.0 °F 15% 30.36 in 10.0 mi NE 6.9 mph 20.7 mph N/A   Clear
11:55 AM 51.8 °F - 6.8 °F 16% 30.36 in 10.0 mi NNE 9.2 mph - N/A   Clear
12:15 PM 53.6 °F - 5.0 °F 14% 30.35 in 10.0 mi NNE 10.4 mph 16.1 mph N/A   Clear
12:35 PM 55.4 °F - 3.2 °F 12% 30.34 in 10.0 mi NNE 9.2 mph 19.6 mph N/A   Clear
12:55 PM 55.4 °F - 1.4 °F 11% 30.33 in 10.0 mi North 13.8 mph 18.4 mph N/A   Clear
1:15 PM 55.4 °F - 1.4 °F 11% 30.32 in 10.0 mi NNE 16.1 mph 23.0 mph N/A   Clear
1:35 PM 55.4 °F - 1.4 °F 11% 30.32 in 10.0 mi North 8.1 mph 19.6 mph N/A   Clear
1:55 PM 55.4 °F - 1.4 °F 11% 30.31 in 10.0 mi NE 9.2 mph - N/A   Clear
2:15 PM 55.4 °F - 1.4 °F 11% 30.31 in 10.0 mi NNE 12.7 mph - N/A   Clear
2:35 PM 55.4 °F - 1.4 °F 11% 30.30 in 10.0 mi NNE 9.2 mph - N/A   Clear
2:55 PM 57.2 °F - 1.4 °F 10% 30.30 in 10.0 mi NNE 5.8 mph - N/A   Clear
3:15 PM 57.2 °F - -0.4 °F 10% 30.30 in 10.0 mi NE 8.1 mph - N/A Thunderstorm Clear
3:35 PM 55.4 °F - -0.4 °F 10% 30.30 in 10.0 mi NE 11.5 mph - N/A   Clear
3:55 PM 55.4 °F - -2.2 °F 9% 30.30 in 10.0 mi NNE 8.1 mph - N/A   Clear
4:15 PM 55.4 °F - -2.2 °F 9% 30.30 in 10.0 mi ENE 8.1 mph - N/A Thunderstorm Clear
4:35 PM 55.4 °F - -2.2 °F 9% 30.30 in 10.0 mi ENE 8.1 mph - N/A   Clear
4:55 PM 55.4 °F - -2.2 °F 9% 30.30 in 10.0 mi NE 6.9 mph - N/A   Clear
5:15 PM 55.4 °F - -0.4 °F 10% 30.30 in 10.0 mi NE 4.6 mph - N/A   Clear
5:35 PM 53.6 °F - -0.4 °F 11% 30.31 in 10.0 mi NE 5.8 mph - N/A   Clear
6:15 PM 46.4 °F - 8.6 °F 22% 30.32 in 10.0 mi Calm Calm - N/A   Clear
6:35 PM 44.6 °F - 6.8 °F 21% 30.32 in 10.0 mi Calm Calm - N/A   Clear
6:55 PM 44.6 °F 43.1 °F 3.2 °F 18% 30.32 in 10.0 mi NW 3.5 mph - N/A   Clear
7:15 PM 46.4 °F 44.3 °F 1.4 °F 16% 30.32 in 10.0 mi NW 4.6 mph - N/A   Clear
7:35 PM 44.6 °F - 5.0 °F 20% 30.32 in 10.0 mi Calm Calm - N/A   Clear
7:55 PM 44.6 °F - 1.4 °F 17% 30.32 in 10.0 mi Calm Calm - N/A   Clear
8:15 PM 42.8 °F - 5.0 °F 21% 30.33 in 10.0 mi Calm Calm - N/A   Clear
8:35 PM 41.0 °F - 6.8 °F 24% 30.33 in 10.0 mi Calm Calm - N/A   Clear
8:55 PM 44.6 °F 43.1 °F 1.4 °F 17% 30.33 in 10.0 mi North 3.5 mph - N/A   Clear
9:15 PM 41.0 °F 38.0 °F 5.0 °F 23% 30.33 in 10.0 mi NNW 4.6 mph - N/A   Clear
9:35 PM 46.4 °F - 1.4 °F 16% 30.34 in 10.0 mi Calm Calm - N/A   Clear
9:55 PM 44.6 °F - -0.4 °F 15% 30.35 in 8.0 mi Calm Calm - N/A   Clear
10:15 PM 41.0 °F - 6.8 °F 24% 30.35 in 10.0 mi Calm Calm - N/A   Clear
10:55 PM 48.2 °F - 1.4 °F 15% 30.36 in 10.0 mi North 8.1 mph - N/A   Clear
11:15 PM 41.0 °F 37.1 °F 6.8 °F 24% 30.36 in 10.0 mi North 5.8 mph - N/A   Clear
11:35 PM 41.0 °F 38.0 °F 5.0 °F 23% 30.36 in 10.0 mi North 4.6 mph - N/A   Clear
11:55 PM 41.0 °F 38.0 °F 5.0 °F 23% 30.36 in 10.0 mi WSW 4.6 mph - N/A   Clear